"datetime","# probes","# resolvers","can_ipv6","can_ipv6_prbs","can_tcp","can_tcp_prbs","can_tcp6","can_tcp6_prbs","does_ecs","does_ecs_prbs","does_flagday","does_flagday_prbs","does_rov4","does_rov4_prbs","does_rov6","does_rov6_prbs","does_qnamemin","doesnt_qnamemin","does_qnamemin_prbs","doesnt_qnamemin_prbs","does_nxdomain","doesnt_nxdomain","does_nxdomain_prbs","doesnt_nxdomain_prbs","has_ta_19036","hasnt_ta_19036","has_ta_19036_prbs","hasnt_ta_19036_prbs","has_ta_20326","hasnt_ta_20326","has_ta_20326_prbs","hasnt_ta_20326_prbs","can_rsamd5","cannot_rsamd5","broken_rsamd5","can_rsamd5_prbs","cannot_rsamd5_prbs","broken_rsamd5_prbs","can_dsa","cannot_dsa","broken_dsa","can_dsa_prbs","cannot_dsa_prbs","broken_dsa_prbs","can_rsasha1","cannot_rsasha1","broken_rsasha1","can_rsasha1_prbs","cannot_rsasha1_prbs","broken_rsasha1_prbs","can_dsansec3","cannot_dsansec3","broken_dsansec3","can_dsansec3_prbs","cannot_dsansec3_prbs","broken_dsansec3_prbs","can_rsansec3","cannot_rsansec3","broken_rsansec3","can_rsansec3_prbs","cannot_rsansec3_prbs","broken_rsansec3_prbs","can_rsasha256","cannot_rsasha256","broken_rsasha256","can_rsasha256_prbs","cannot_rsasha256_prbs","broken_rsasha256_prbs","can_rsasha512","cannot_rsasha512","broken_rsasha512","can_rsasha512_prbs","cannot_rsasha512_prbs","broken_rsasha512_prbs","can_eccgost","cannot_eccgost","broken_eccgost","can_eccgost_prbs","cannot_eccgost_prbs","broken_eccgost_prbs","can_ecdsa256","cannot_ecdsa256","broken_ecdsa256","can_ecdsa256_prbs","cannot_ecdsa256_prbs","broken_ecdsa256_prbs","can_ecdsa384","cannot_ecdsa384","broken_ecdsa384","can_ecdsa384_prbs","cannot_ecdsa384_prbs","broken_ecdsa384_prbs","can_ed25519","cannot_ed25519","broken_ed25519","can_ed25519_prbs","cannot_ed25519_prbs","broken_ed25519_prbs","can_ed448","cannot_ed448","broken_ed448","can_ed448_prbs","cannot_ed448_prbs","broken_ed448_prbs","can_gost","cannot_gost","broken_gost","can_gost_prbs","cannot_gost_prbs","broken_gost_prbs","can_sha384","cannot_sha384","broken_sha384","can_sha384_prbs","cannot_sha384_prbs","broken_sha384_prbs","is_internal","is_forwarding","is_external","is_internal_prbs","is_forwarding_prbs","is_external_prbs"
2017-06-20T23:59:59Z,226,353,169,126,351,225,164,122,114,91,0,0,0,0,0,0,4,348,2,223,1,350,1,224,0,0,0,0,0,0,0,0,2,263,87,6,174,68,1,352,0,9,225,0,88,264,0,74,171,0,0,353,0,8,226,0,87,265,0,72,172,0,87,265,0,72,172,0,87,265,0,72,172,0,0,351,2,4,225,1,89,263,0,72,171,0,89,263,0,72,171,0,0,351,2,0,225,1,0,350,3,0,225,2,88,262,2,73,172,1,89,261,0,73,169,0,208,66,79,131,64,52
2017-06-21T23:59:59Z,227,362,170,126,358,226,164,121,116,91,0,0,0,0,0,0,4,357,2,224,1,359,1,225,0,0,0,0,0,0,0,0,1,269,91,5,174,70,0,362,0,8,227,0,89,272,0,74,172,0,0,362,0,8,227,0,88,273,0,73,173,0,88,273,0,73,173,0,88,273,0,73,173,0,0,358,4,4,225,2,89,272,0,73,172,0,89,272,0,73,172,0,0,358,4,0,225,2,0,358,4,0,225,2,89,268,4,73,172,2,89,270,0,73,170,0,213,70,79,131,66,52
2017-06-22T23:59:58Z,226,357,170,126,356,225,167,124,116,90,0,0,0,0,0,0,4,352,2,223,1,354,1,224,0,0,0,0,0,0,0,0,1,264,90,6,173,70,0,356,0,9,226,0,88,267,0,74,171,0,0,357,0,9,226,0,88,268,0,74,171,0,88,268,0,74,171,0,89,268,0,75,171,0,0,353,4,5,224,2,89,266,0,74,170,0,89,266,0,74,170,0,0,352,4,0,224,2,0,353,4,0,224,2,88,264,4,73,171,2,90,264,0,75,167,0,205,71,79,128,67,52
2017-06-23T23:59:59Z,226,357,170,125,355,225,166,122,118,91,0,0,0,0,0,0,4,352,2,223,1,354,1,224,0,0,0,0,0,0,0,0,2,265,88,6,175,68,1,355,0,9,226,0,87,268,0,72,173,0,0,357,0,8,226,0,88,268,0,73,172,0,88,268,0,73,172,0,89,268,0,74,172,0,1,352,4,5,223,2,87,268,0,71,173,0,87,268,0,71,173,0,0,352,4,0,224,2,0,353,4,0,224,2,88,264,4,72,172,2,89,265,0,73,169,0,205,71,79,127,67,52
2017-06-24T23:59:59Z,223,353,169,124,349,221,165,122,117,91,0,0,0,0,0,0,2,350,2,221,1,350,1,221,0,0,0,0,0,0,0,0,2,263,86,5,173,67,1,351,0,8,222,1,87,264,0,71,170,1,0,353,0,7,223,1,88,264,0,72,169,1,87,265,0,71,170,1,88,265,0,72,170,1,0,351,2,4,222,2,87,264,0,71,170,1,87,264,0,71,170,1,0,350,2,0,222,2,0,351,2,0,222,2,87,263,2,71,171,2,88,262,0,72,167,1,203,70,78,127,66,51
2017-06-25T23:59:59Z,222,351,169,124,350,221,165,121,115,89,0,0,0,0,0,0,2,348,1,220,1,348,1,220,0,0,0,0,0,0,0,0,3,262,84,6,172,66,2,349,0,9,220,1,88,262,0,72,168,1,0,351,0,8,222,1,88,262,0,72,168,1,88,262,0,72,168,1,89,262,0,73,168,1,0,351,0,5,222,1,88,262,0,72,168,1,88,262,0,72,168,1,0,351,0,0,222,1,0,351,0,0,222,1,88,262,0,72,170,1,89,259,0,73,165,1,204,69,78,128,64,51
2017-06-26T23:59:59Z,226,356,170,124,354,224,167,122,117,90,0,0,0,0,0,0,4,351,2,223,1,353,1,223,0,0,0,0,0,0,0,0,1,264,89,4,175,69,0,356,0,7,226,1,89,266,0,72,172,1,0,356,0,7,226,1,89,266,0,72,172,1,89,266,0,72,172,1,90,266,0,73,172,1,0,354,2,4,225,2,88,267,0,71,173,1,88,267,0,71,173,1,0,354,2,0,225,2,0,354,2,0,225,2,90,263,2,73,172,2,88,264,1,71,170,2,203,73,78,128,68,51
2017-06-27T23:59:59Z,226,359,168,123,358,225,164,121,115,90,0,0,0,0,0,0,4,354,2,223,1,356,1,224,0,0,0,0,0,0,0,0,2,267,88,5,175,68,1,358,0,8,225,1,87,271,0,71,173,1,0,359,0,7,226,1,87,271,0,71,173,1,87,271,0,71,173,1,88,271,0,72,173,1,0,355,4,4,224,3,86,272,0,70,174,1,86,272,0,70,174,1,0,355,4,0,224,3,0,355,4,0,224,3,87,267,4,71,173,3,87,269,0,71,171,1,209,72,76,129,67,50
2017-06-28T23:59:59Z,226,360,168,123,359,225,164,120,113,88,0,0,0,0,0,0,4,355,3,223,1,357,1,224,0,0,0,0,0,0,0,0,1,268,88,4,176,68,0,360,0,7,226,1,86,273,0,70,174,1,0,360,0,7,226,1,85,274,0,69,175,1,86,273,0,70,174,1,87,273,0,71,174,1,0,356,4,4,224,3,86,273,0,70,174,1,86,273,0,70,174,1,0,356,4,0,224,3,0,356,4,0,224,3,87,267,4,71,173,3,87,269,0,71,171,1,210,72,76,129,67,50
2017-06-29T23:59:59Z,227,362,170,124,361,226,166,121,112,87,0,0,0,0,0,0,4,357,3,224,1,359,1,225,0,0,0,0,0,0,0,0,3,270,86,6,177,66,1,361,0,8,226,1,88,273,0,71,174,1,0,362,0,7,227,1,89,272,0,72,173,1,87,274,0,72,174,1,90,272,0,73,173,1,0,360,2,4,226,2,86,275,0,70,175,1,87,274,0,70,175,1,0,360,2,0,226,2,0,360,2,0,226,2,90,268,2,73,173,2,88,270,0,72,171,1,212,72,76,131,67,50
2017-06-30T23:59:58Z,225,357,169,124,355,224,165,121,113,88,0,0,0,0,0,0,4,352,2,222,1,354,1,223,0,0,0,0,0,0,0,0,1,268,87,4,175,68,0,357,0,7,225,1,87,269,0,71,172,1,0,357,0,7,225,1,88,268,0,72,171,1,87,269,0,72,172,1,89,268,0,73,171,1,0,355,2,4,224,2,88,268,0,72,171,1,88,268,0,72,171,1,0,355,2,0,224,2,0,355,2,0,224,2,88,266,2,72,172,2,88,266,0,72,169,1,207,72,76,129,67,50
2017-07-01T23:59:59Z,223,355,168,122,353,221,165,120,115,88,0,0,0,0,0,0,5,349,3,219,1,352,1,221,0,0,0,0,0,0,0,0,4,266,84,7,174,65,3,352,0,10,221,1,89,265,0,71,170,1,0,355,0,7,223,1,90,264,0,72,169,1,90,264,0,72,169,1,91,264,0,73,169,1,0,355,0,4,223,1,88,266,0,70,171,1,88,266,0,70,171,1,0,355,0,0,223,1,0,355,0,0,223,1,90,264,0,72,171,1,89,263,0,71,168,1,205,70,78,128,65,51
2017-07-02T23:59:59Z,224,355,167,122,354,223,164,120,117,90,0,0,0,0,0,0,5,349,4,220,1,352,1,222,0,0,0,0,0,0,0,0,2,268,83,5,176,64,1,354,0,8,223,1,86,268,0,69,172,1,0,355,0,8,224,1,89,265,0,72,169,1,88,266,0,71,170,1,89,266,0,72,170,1,0,355,0,5,224,1,87,267,0,70,171,1,87,267,0,70,171,1,0,355,0,0,224,1,0,355,0,0,224,1,88,265,0,71,172,1,88,263,0,71,168,1,206,69,78,129,64,51
2017-07-03T23:59:58Z,219,351,166,120,349,217,162,117,117,89,0,0,0,0,0,0,2,348,2,217,1,348,1,217,0,0,0,0,0,0,0,0,2,262,85,5,170,65,1,350,0,8,218,1,88,262,0,70,166,1,0,351,0,7,219,1,88,262,0,70,166,1,87,263,0,70,167,1,89,262,0,71,166,1,0,351,0,4,219,1,87,263,0,69,167,1,87,263,0,69,167,1,0,351,0,0,219,1,0,351,0,0,219,1,89,260,0,71,167,1,88,259,0,70,164,1,200,71,78,123,66,51
2017-07-04T23:59:59Z,221,354,168,122,353,220,163,119,116,89,0,0,0,0,0,0,4,349,3,218,1,351,1,219,0,0,0,0,0,0,0,0,1,265,87,5,171,66,0,354,0,8,221,1,89,264,0,72,167,1,0,354,0,8,221,1,88,265,0,71,168,1,88,265,0,71,168,1,89,265,0,72,168,1,0,354,0,4,221,1,88,265,0,70,168,1,88,265,0,70,168,1,0,354,0,0,221,1,0,354,0,0,221,1,89,264,0,71,169,1,91,262,0,73,165,2,206,68,78,128,63,51
2017-07-05T23:59:59Z,221,354,166,121,353,220,163,119,112,87,0,0,0,0,0,0,4,349,2,218,1,351,1,219,0,0,0,0,0,0,0,0,1,265,87,5,172,66,0,354,0,9,221,0,87,266,0,71,168,0,0,354,0,9,221,0,87,266,0,71,168,0,86,267,0,71,169,0,88,266,0,72,168,0,0,352,2,4,220,1,86,267,0,69,169,0,86,267,0,69,169,0,0,352,2,0,220,1,0,352,2,0,220,1,86,265,2,69,171,1,89,264,0,72,166,0,206,70,76,127,65,50
2017-07-06T23:59:59Z,220,354,165,120,353,219,158,117,116,89,0,0,0,0,0,0,2,351,1,218,1,350,1,217,0,0,0,0,0,0,0,0,1,265,86,5,172,65,0,354,0,8,220,0,86,267,0,70,168,0,0,354,0,8,220,0,86,267,0,70,168,0,86,267,0,70,168,0,87,267,0,71,168,0,0,352,2,4,219,1,85,268,0,68,169,0,85,268,0,68,169,0,0,352,2,0,219,1,0,352,2,0,219,1,86,264,2,69,170,1,87,265,0,70,167,0,207,69,76,128,63,50
2017-07-07T23:59:59Z,222,359,165,120,358,221,162,118,114,89,0,0,0,0,0,0,2,356,2,220,1,356,1,220,0,0,0,0,0,0,0,0,3,271,83,7,175,63,2,357,0,10,220,0,87,271,0,71,170,0,0,359,0,8,222,0,87,271,0,71,170,0,87,271,0,71,170,0,88,271,0,72,170,0,0,359,0,4,222,0,87,271,0,70,170,0,87,271,0,70,170,0,0,359,0,0,222,0,0,359,0,0,222,0,87,270,0,70,173,0,89,268,0,72,168,0,212,69,76,131,62,50
2017-07-08T23:59:59Z,221,358,166,119,356,220,163,117,114,87,0,0,0,0,0,0,2,355,1,219,1,355,1,219,0,0,0,0,0,0,0,0,4,269,83,7,174,64,1,357,0,10,220,0,88,269,0,71,168,0,0,358,0,10,221,0,88,269,0,71,168,0,88,269,0,71,168,0,89,269,0,72,168,0,0,358,0,5,221,0,88,270,0,70,169,0,88,269,0,70,168,0,0,358,0,0,221,0,0,358,0,0,221,0,88,269,0,70,172,0,89,267,0,71,167,0,211,68,77,130,61,51
2017-07-09T23:59:59Z,223,362,169,120,356,221,166,118,114,87,0,0,0,0,0,0,4,357,3,220,1,359,2,221,0,0,0,0,0,0,0,0,3,268,89,7,174,66,1,361,0,10,222,1,91,270,0,72,169,0,0,362,0,9,223,1,93,268,0,74,167,0,92,269,0,73,168,0,93,269,0,74,168,0,0,360,2,4,222,1,92,270,0,72,169,0,92,269,0,72,168,0,0,360,2,0,222,1,0,360,2,0,222,1,92,267,2,72,171,1,93,267,0,73,167,1,213,68,79,131,61,52
2017-07-10T23:59:59Z,224,360,165,119,359,223,162,117,113,88,0,0,0,0,0,0,4,355,3,221,1,357,2,222,0,0,0,0,0,0,0,0,3,269,87,7,174,67,1,359,0,9,223,1,89,270,0,72,170,1,0,360,0,8,224,1,90,269,0,73,169,1,90,269,0,73,169,1,90,270,0,73,170,1,0,358,2,4,223,2,90,270,0,72,170,1,90,269,0,72,169,1,0,358,2,0,223,2,0,358,2,0,223,2,89,268,2,71,172,2,90,268,0,72,169,1,211,69,78,131,62,52
2017-07-11T23:59:59Z,223,356,166,120,355,222,163,118,117,89,0,0,0,0,0,0,4,351,2,220,1,354,1,221,0,0,0,0,0,0,0,0,3,263,89,7,171,67,2,354,0,10,221,0,91,264,0,74,167,0,0,356,0,8,223,0,90,265,0,73,168,0,90,265,0,73,168,0,91,265,0,74,168,0,0,354,2,4,222,1,91,265,0,73,168,0,91,264,0,73,167,0,0,354,2,0,222,1,0,354,2,0,222,1,90,263,2,72,170,1,91,263,0,73,167,0,205,71,78,129,65,52
2017-07-12T23:59:59Z,224,361,169,120,358,222,166,118,119,91,0,0,0,0,0,0,4,356,2,221,1,359,1,222,0,0,0,0,0,0,0,0,3,269,88,7,174,67,1,360,0,9,223,0,90,270,0,73,170,0,0,361,0,8,224,0,90,270,0,73,170,0,90,270,0,73,170,0,91,270,0,74,170,0,0,359,2,4,223,1,90,271,0,72,171,0,90,270,0,72,170,0,0,359,2,0,223,1,0,359,2,0,223,1,90,268,2,72,172,1,92,267,0,74,168,0,213,68,80,133,61,53
2017-07-13T23:59:59Z,223,357,167,120,356,222,164,118,120,91,0,0,0,0,0,0,2,354,1,221,1,355,1,221,0,0,0,0,0,0,0,0,1,261,94,5,171,71,0,357,0,8,223,0,94,262,0,76,167,0,0,357,0,8,223,0,93,263,0,75,168,0,93,263,0,75,168,0,94,263,0,76,168,0,0,355,2,4,222,1,93,264,0,74,169,0,93,263,0,74,168,0,0,355,2,0,222,1,0,355,2,0,222,1,94,260,2,75,169,1,94,261,0,75,167,0,206,68,81,130,61,53
2017-07-14T23:59:59Z,223,354,169,121,348,220,165,118,119,90,0,0,0,0,0,0,2,351,1,221,1,352,1,221,0,0,0,0,0,0,0,0,2,259,92,6,173,69,1,353,0,9,222,0,93,260,0,75,169,0,0,354,0,8,223,0,93,260,0,75,169,0,93,260,0,75,169,0,94,260,0,76,169,0,0,352,2,4,222,1,94,260,0,75,169,0,94,259,0,75,168,0,0,352,2,0,222,1,0,352,2,0,222,1,94,257,2,75,170,1,95,258,0,76,167,0,204,69,81,131,62,53
2017-07-15T23:59:59Z,224,357,166,120,355,222,162,117,121,93,0,0,0,0,0,0,4,352,2,221,1,355,1,222,0,0,0,0,0,0,0,0,3,262,91,7,173,69,1,356,0,9,223,0,93,263,0,75,169,0,0,357,0,8,224,0,94,262,0,76,168,0,93,263,0,75,169,0,94,263,0,76,169,0,0,355,2,4,223,1,93,264,0,74,170,0,93,263,0,74,169,0,0,355,2,0,223,1,0,355,2,0,223,1,93,261,2,74,171,1,94,262,0,75,168,0,207,69,79,132,61,52
2017-07-16T23:59:59Z,225,358,163,119,357,224,159,116,117,91,0,0,0,0,0,0,4,353,2,222,1,356,1,223,0,0,0,0,0,0,0,0,3,265,89,7,174,68,1,357,0,10,224,0,91,266,0,75,170,0,0,358,0,9,225,0,92,265,0,76,169,0,92,265,0,76,169,0,93,265,0,77,169,0,0,356,2,5,224,1,92,266,0,75,170,0,92,265,0,75,169,0,0,356,2,0,224,1,0,356,2,0,224,1,91,263,3,74,171,2,92,265,0,75,169,0,211,69,76,134,62,51
2017-07-17T23:59:59Z,229,367,168,121,366,228,163,117,121,92,0,0,0,0,0,0,6,360,3,225,1,365,1,227,0,0,0,0,0,0,0,0,2,273,91,6,178,70,0,367,0,8,229,0,95,271,0,77,172,0,0,367,0,8,229,0,94,272,0,76,173,0,94,272,0,76,173,0,95,272,0,77,173,0,0,367,0,4,229,0,93,274,0,74,175,0,93,273,0,74,174,0,0,367,0,0,229,0,0,367,0,0,229,0,94,272,0,75,176,0,96,269,0,77,171,0,213,71,81,135,63,53
2017-07-18T23:59:59Z,228,369,170,121,366,226,165,117,121,92,0,0,0,0,0,0,4,364,3,225,2,366,2,226,0,0,0,0,0,0,0,0,2,277,89,6,179,67,1,368,0,9,227,0,92,276,0,74,174,0,0,369,0,8,228,0,93,275,0,75,173,0,93,275,0,75,173,0,93,275,1,76,173,1,0,369,0,4,228,0,92,277,0,73,175,0,92,276,0,73,174,0,0,369,0,0,228,0,0,369,0,0,228,0,92,276,0,73,177,0,93,274,0,74,173,0,213,73,81,133,65,53
2017-07-19T23:59:59Z,225,359,164,120,357,223,160,117,116,90,0,0,0,0,0,0,0,358,0,224,1,357,1,223,0,0,0,0,0,0,0,0,2,271,85,6,175,66,0,359,0,7,225,0,88,270,0,72,171,0,0,359,0,7,225,0,87,271,0,71,172,0,87,271,0,71,172,0,88,271,0,72,172,0,0,359,0,4,225,0,87,272,0,70,173,0,87,271,0,70,172,0,0,359,0,0,225,0,0,359,0,0,225,0,87,271,0,70,174,0,88,270,0,71,171,0,213,72,74,133,64,50
2017-07-20T23:59:59Z,228,363,164,121,361,227,159,117,115,88,0,0,0,0,0,0,2,360,1,226,1,361,1,226,0,0,0,0,0,0,0,0,2,273,87,6,176,67,1,362,0,8,227,0,88,274,0,73,173,0,0,363,0,8,228,0,88,274,0,73,173,0,88,274,0,73,173,0,89,274,0,74,173,0,1,360,2,6,226,1,87,276,0,71,175,0,87,275,0,71,174,0,0,361,2,0,227,1,0,361,2,0,227,1,87,273,2,71,175,1,88,274,0,72,173,0,216,73,74,135,65,50
2017-07-21T23:59:59Z,227,359,166,122,358,226,162,119,120,94,0,0,0,0,0,0,2,356,1,225,1,357,1,225,0,0,0,0,0,0,0,0,3,267,88,6,174,68,1,358,0,7,226,0,90,268,0,73,171,0,0,359,0,6,227,0,88,270,0,71,173,0,88,270,0,71,173,0,89,270,0,72,173,0,0,357,2,3,226,1,88,271,0,70,174,0,88,270,0,70,173,0,0,357,2,0,226,1,0,357,2,0,226,1,88,268,2,70,174,1,89,269,0,71,172,0,208,75,74,131,67,50
2017-07-22T23:59:59Z,226,357,167,123,356,225,163,120,121,95,0,0,0,0,0,0,2,354,2,224,1,355,1,224,0,0,0,0,0,0,0,0,1,266,88,4,175,67,0,357,0,6,226,1,88,267,0,71,172,0,0,357,0,6,226,0,88,267,0,71,172,0,88,267,0,71,172,0,89,267,0,72,172,0,0,355,2,3,225,2,88,268,0,70,173,1,88,267,0,70,172,1,0,355,2,0,225,2,0,355,2,0,225,2,88,265,2,70,173,2,90,265,0,72,170,1,203,78,74,128,70,50
2017-07-23T23:59:59Z,228,359,171,125,357,226,166,121,120,93,0,0,0,0,0,0,2,356,1,226,1,357,1,226,0,0,0,0,0,0,0,0,3,265,90,6,174,69,1,358,0,7,227,0,92,266,0,74,171,0,0,359,0,6,228,0,92,266,0,74,171,0,92,266,0,74,171,0,92,266,0,74,171,0,0,357,2,3,227,2,93,265,0,74,170,1,93,265,0,74,170,1,0,357,2,0,227,2,0,357,2,0,227,2,92,264,2,73,172,2,94,263,0,74,169,1,204,77,76,129,69,51
2017-07-24T23:59:59Z,232,371,172,126,369,231,167,122,125,95,0,0,0,0,0,0,4,366,2,229,1,369,1,230,0,0,0,0,0,0,0,0,3,275,92,6,177,70,1,370,0,8,231,0,94,276,0,76,174,0,0,371,0,7,232,0,94,276,0,76,174,0,94,276,0,76,174,0,94,276,0,76,174,0,0,369,2,4,231,1,85,285,0,70,182,0,93,277,0,74,175,0,0,369,2,0,231,1,0,369,2,0,231,1,83,285,2,66,184,1,93,276,0,74,174,0,212,77,80,132,70,53
2017-07-25T23:59:59Z,231,371,168,124,368,229,162,119,121,94,0,0,0,0,0,0,4,366,3,228,1,369,1,229,0,0,0,0,0,0,0,0,2,279,89,6,179,68,0,371,0,8,231,0,90,280,0,74,176,0,0,371,0,8,231,0,90,280,0,74,176,0,90,280,0,74,176,0,90,280,0,74,176,0,0,369,2,5,230,1,90,280,0,73,176,0,90,280,0,73,176,0,0,369,2,0,230,1,0,369,2,0,230,1,90,278,2,73,177,1,90,279,0,73,175,0,213,77,79,132,69,52
2017-07-26T23:59:59Z,232,371,168,126,369,230,163,123,118,93,0,0,0,0,0,0,2,368,1,230,1,369,1,230,0,0,0,0,0,0,0,0,2,278,90,6,177,70,1,370,0,9,231,0,91,279,0,77,174,0,0,371,0,8,232,0,89,281,0,75,176,0,89,281,0,75,176,0,89,281,0,75,176,0,0,369,2,5,231,1,91,279,0,76,174,0,91,279,0,76,174,0,0,369,2,0,231,1,0,369,2,0,231,1,89,279,2,74,177,1,90,279,0,75,174,0,214,77,78,132,69,53
2017-07-27T23:59:59Z,232,370,170,127,369,231,164,123,114,91,0,0,0,0,0,0,2,365,1,229,1,366,1,229,0,0,0,0,0,0,0,0,4,277,88,8,177,68,2,368,0,10,230,0,91,278,0,77,174,0,0,370,0,9,232,0,90,279,0,76,175,0,90,279,0,76,175,0,90,279,0,76,175,0,0,368,2,6,231,1,90,279,0,75,175,0,90,279,0,75,175,0,0,368,2,0,231,1,0,368,2,0,231,1,88,277,2,74,176,1,90,276,0,76,172,0,212,76,80,131,68,54
2017-07-28T23:59:59Z,230,369,168,125,368,229,162,121,117,93,0,0,0,0,0,0,4,364,3,227,1,367,1,228,0,0,0,0,0,0,0,0,1,277,90,5,176,70,0,369,0,8,230,0,90,278,0,76,173,0,0,369,0,8,230,0,89,279,0,75,174,0,89,279,0,75,174,0,89,279,0,75,174,0,0,367,2,5,229,1,90,278,0,75,173,0,90,277,1,75,173,1,0,367,2,0,229,1,0,367,2,0,229,1,89,277,2,74,175,1,90,277,0,75,172,0,213,76,78,130,68,53
2017-07-29T23:59:59Z,228,367,170,126,365,227,164,122,119,94,0,0,0,0,0,0,4,362,2,225,1,365,1,226,0,0,0,0,0,0,0,0,1,274,91,5,175,70,0,367,0,9,228,0,92,274,0,77,170,0,0,367,0,9,228,0,90,276,0,75,172,0,90,276,0,75,172,0,90,276,0,75,172,0,0,365,2,5,227,1,90,276,0,74,172,0,90,276,0,74,172,0,0,365,2,0,227,1,0,365,2,0,227,1,90,274,2,74,174,1,90,275,0,74,171,0,209,76,80,129,68,54
2017-07-30T23:59:59Z,230,368,171,127,367,229,165,123,119,94,0,0,0,0,0,0,4,363,3,227,1,366,1,228,0,0,0,0,0,0,0,0,2,274,91,6,176,70,1,367,0,10,229,0,91,276,0,76,173,0,0,368,0,9,230,0,93,274,0,78,171,0,93,274,0,78,171,0,93,274,0,78,171,0,0,366,2,5,229,1,92,275,0,76,172,0,92,275,0,76,172,0,0,366,2,0,229,1,0,366,2,0,229,1,92,273,2,76,174,1,93,273,0,77,170,0,213,75,78,131,67,53
2017-07-31T23:59:59Z,230,368,171,126,367,229,166,123,121,95,0,0,0,0,0,0,4,363,2,227,1,366,1,228,0,0,0,0,0,0,0,0,1,274,92,5,177,71,0,368,0,9,230,0,92,275,0,77,173,0,0,368,0,9,230,0,91,276,0,76,174,0,91,276,0,76,174,0,91,276,0,76,174,0,0,366,2,5,229,1,91,276,0,75,174,0,91,276,0,75,174,0,0,366,2,0,229,1,0,366,2,0,229,1,91,274,2,75,176,1,91,275,0,75,173,0,209,78,79,129,70,54
2017-08-01T23:59:59Z,233,372,176,129,369,232,170,125,122,94,0,0,0,0,0,0,2,369,1,231,1,370,1,231,0,0,0,0,0,0,0,0,3,275,93,7,179,71,1,371,0,11,232,0,95,276,0,79,174,0,0,372,0,10,233,0,95,276,0,79,174,0,95,276,0,79,174,0,95,276,0,79,174,0,1,369,2,6,231,1,93,278,0,76,176,0,93,278,0,76,176,0,0,370,2,0,232,1,0,370,2,0,232,1,93,276,2,76,179,1,96,274,0,78,173,0,212,79,79,133,71,54
2017-08-02T23:59:59Z,228,365,169,124,364,227,161,119,118,91,0,0,0,0,0,0,2,362,2,226,1,363,1,226,0,0,0,0,0,0,0,0,1,272,91,5,176,70,0,365,0,9,228,0,91,273,0,76,172,0,0,365,0,9,228,0,91,273,0,76,172,0,91,273,0,76,172,0,91,273,0,76,172,0,0,363,2,5,227,1,91,273,0,75,172,0,91,273,0,75,172,0,0,363,2,0,227,1,0,363,2,0,227,1,92,270,2,76,173,1,92,271,0,76,170,0,210,76,77,131,67,52
2017-08-03T23:59:59Z,229,370,169,123,369,228,164,120,118,91,0,0,0,0,0,0,4,365,2,226,1,368,1,227,0,0,0,0,0,0,0,0,1,279,89,5,178,68,0,370,0,8,229,0,89,280,0,74,175,0,0,370,0,8,229,0,89,280,0,74,175,0,89,279,0,74,175,0,89,279,0,74,175,0,0,367,2,5,228,1,89,280,0,73,175,0,89,280,0,73,175,0,0,368,2,0,228,1,0,368,2,0,228,1,90,277,2,74,175,1,89,279,0,73,174,0,213,77,78,130,68,52
2017-08-04T23:59:59Z,230,370,170,124,369,229,165,121,122,95,0,0,0,0,0,0,4,365,2,227,1,368,1,228,0,0,0,0,0,0,0,0,4,276,89,9,176,69,2,368,0,11,229,0,92,277,0,77,173,0,0,370,0,9,230,0,91,278,0,76,174,0,91,278,0,76,174,0,91,278,0,76,174,0,1,367,2,7,228,1,90,279,0,74,175,0,90,279,0,74,175,0,0,368,2,0,229,1,0,368,2,0,229,1,90,277,2,74,176,1,91,277,0,75,173,0,213,77,78,133,68,52
2017-08-05T23:59:59Z,229,369,172,125,365,226,167,122,118,92,0,0,0,0,0,0,4,364,2,226,1,366,1,226,0,0,0,0,0,0,0,0,3,277,88,7,177,67,1,368,0,9,228,0,90,278,0,75,174,0,0,369,0,8,229,0,90,278,0,75,174,0,90,278,0,75,174,0,90,278,0,75,174,0,0,367,2,5,228,1,90,278,0,74,174,0,90,278,0,74,174,0,0,367,2,0,228,1,0,367,2,0,228,1,90,276,2,74,175,1,92,275,0,75,172,0,212,78,77,130,69,51
2017-08-06T23:59:59Z,227,363,171,125,362,226,166,122,116,90,0,0,0,0,0,0,2,360,1,225,1,360,1,224,0,0,0,0,0,0,0,0,3,271,88,7,175,67,1,362,0,9,226,0,90,272,0,75,172,0,0,363,0,8,227,0,90,272,0,75,172,0,91,271,0,76,171,0,91,271,0,76,171,0,0,361,2,5,226,1,91,271,0,75,171,0,91,271,0,75,171,0,0,361,2,0,226,1,0,361,2,0,226,1,90,270,2,74,173,1,91,270,0,75,170,0,208,76,77,130,67,51
2017-08-07T23:59:59Z,227,366,169,123,364,225,164,120,118,92,0,0,0,0,0,0,2,363,1,225,1,363,1,224,0,0,0,0,0,0,0,0,2,274,89,6,175,68,0,366,0,8,227,0,90,275,0,75,172,0,0,366,0,8,227,0,90,275,0,75,172,0,90,275,0,75,172,0,90,275,0,75,172,0,0,364,2,5,226,1,89,276,0,73,173,0,89,276,0,73,173,0,0,364,2,0,226,1,0,364,2,0,226,1,89,274,2,73,174,1,89,275,0,73,172,0,211,76,77,131,67,51
2017-08-08T23:59:59Z,226,365,168,123,362,224,161,118,113,88,0,0,0,0,0,0,2,362,1,224,1,362,1,223,0,0,0,0,0,0,0,0,2,276,86,6,176,66,0,365,0,8,226,0,87,277,0,73,173,0,0,365,0,8,226,0,87,277,0,73,173,0,87,277,0,73,173,0,87,277,0,73,173,0,0,363,2,5,225,1,87,277,0,72,173,0,87,277,0,72,173,0,0,363,2,0,225,1,0,363,2,0,225,1,87,275,2,72,174,1,88,275,0,73,171,0,213,77,75,130,69,50
2017-08-09T23:59:58Z,227,366,168,124,365,226,161,119,116,90,0,0,0,0,0,0,2,362,1,225,1,363,1,224,0,0,0,0,0,0,0,0,2,274,88,5,176,68,0,366,0,7,227,0,90,275,0,75,173,0,0,366,0,7,227,0,91,274,0,77,172,0,91,274,0,77,172,0,91,274,0,77,172,0,0,364,2,4,226,1,92,273,0,76,172,0,92,273,0,76,172,0,0,364,2,0,226,1,0,364,2,0,226,1,90,273,2,74,174,1,91,273,0,74,172,0,213,78,73,130,69,49
2017-08-10T23:59:59Z,229,371,167,123,369,228,159,117,119,93,0,0,0,0,0,0,4,365,2,226,1,368,1,226,0,0,0,0,0,0,0,0,1,277,91,4,177,69,0,371,0,7,229,0,92,278,0,75,174,0,0,371,0,7,229,0,92,278,0,76,174,0,92,278,0,76,174,0,92,278,0,76,174,0,0,369,2,4,228,1,93,277,0,76,173,0,94,276,0,77,172,0,0,369,2,0,228,1,0,369,2,0,228,1,91,277,2,73,176,1,90,279,0,74,174,0,219,76,74,134,67,49
2017-08-11T23:59:59Z,228,370,167,123,368,227,159,117,119,91,0,0,0,0,0,0,2,366,1,226,1,365,1,224,0,0,0,0,0,0,0,0,1,280,87,4,178,67,0,370,0,7,228,0,90,279,0,74,174,0,0,370,0,7,228,0,90,279,0,75,174,0,90,279,0,75,174,0,90,279,0,75,174,0,0,370,0,4,228,0,91,278,0,75,173,0,90,279,0,74,174,0,0,370,0,0,228,0,0,370,0,0,228,0,91,278,0,74,175,0,89,279,0,73,174,0,215,79,74,130,71,49
2017-08-12T23:59:59Z,226,364,165,123,361,224,157,117,113,88,0,0,0,0,0,0,2,360,1,224,1,361,1,223,0,0,0,0,0,0,0,0,2,274,86,5,175,67,1,363,0,8,225,0,90,273,0,75,171,0,0,364,0,7,226,0,90,273,0,76,171,0,90,273,0,76,171,0,90,273,0,76,171,0,0,364,0,4,226,0,89,274,0,74,172,0,89,274,0,74,172,0,0,364,0,0,226,0,0,364,0,0,226,0,91,272,0,75,172,0,90,272,0,74,170,0,213,77,72,131,68,48
2017-08-13T23:59:58Z,225,364,165,123,362,223,157,117,116,92,0,0,0,0,0,0,0,362,0,224,1,361,1,222,0,0,0,0,0,0,0,0,1,273,88,4,174,68,0,364,0,8,225,0,91,272,0,76,170,0,0,364,0,8,225,0,90,273,0,76,171,0,90,273,0,76,171,0,90,273,0,76,171,0,0,364,0,4,225,0,91,272,0,76,170,0,91,272,0,76,170,0,0,364,0,0,225,0,0,364,0,0,225,0,90,273,0,73,173,0,91,271,0,75,169,0,212,76,74,129,68,49
2017-08-14T23:59:59Z,225,361,169,125,360,224,161,120,116,91,0,0,0,0,0,0,0,359,1,224,1,358,1,222,0,0,0,0,0,0,0,0,1,273,85,5,176,67,0,361,0,9,225,0,88,272,0,75,171,0,0,361,0,9,225,0,89,271,0,77,170,0,88,272,0,76,171,0,88,272,0,76,171,0,0,361,0,5,225,0,89,271,0,76,170,0,88,271,1,75,170,1,0,361,0,0,225,0,0,361,0,0,225,0,88,272,0,74,174,0,91,268,0,76,168,0,207,77,75,129,68,50
2017-08-15T23:59:59Z,226,359,171,127,358,225,163,121,117,92,0,0,0,0,0,0,0,357,1,225,1,356,1,223,0,0,0,0,0,0,0,0,2,268,86,6,175,68,1,358,0,11,225,0,91,267,0,78,170,0,0,359,0,10,226,0,90,268,0,78,171,0,90,268,0,78,171,0,90,268,0,78,171,0,0,359,0,5,226,0,90,268,0,77,171,0,89,268,1,76,171,1,0,359,0,0,226,0,0,359,0,0,226,0,91,267,0,76,173,0,91,266,0,76,169,0,203,79,75,129,69,50
2017-08-16T23:59:59Z,224,357,169,126,356,223,162,121,116,92,0,0,0,0,0,0,4,352,2,221,1,354,1,221,0,0,0,0,0,0,0,0,3,270,83,7,176,68,3,354,0,12,222,1,87,269,0,76,171,1,0,357,0,10,224,1,87,269,0,76,171,1,87,269,0,76,171,1,87,269,0,76,171,1,1,356,0,6,223,1,88,268,0,76,170,1,88,268,0,76,170,1,0,357,0,0,224,1,0,357,0,0,224,1,87,269,0,74,174,1,88,267,0,75,169,1,205,75,75,130,67,50